Date String (YYYY-MM-DD hh:mm:ss) UTC,Instrument flags,absolute air pressure of the measurement (hPa),sample flow rate (lpm),inlet stack bypass flow (lpm),air temperature of the measurement (°C),ambient temperature measured by the external sensor (°C),aerosol sample conditioner tube jacket temperature (°C),OPC LED temperature (°C),internal box temperature (°C),relative humidity of the measurement (%),span deviation,mass concentration of particles derived from Lorenz-Mie calculation of OPC scattering (μg/m³),mass concentration of particles derived from Lorenz-Mie calculation of OPC scattering (μg/m³),mass concentration of particles derived from Lorenz-Mie calculation of OPC scattering (μg/m³)
DateTimeUTC,F1_M11,P_M11,Q1_M11,Q2_M11,T1_M11,T2_M11,T3_M11,T4_M11,T5_M11,U1_M11,ZSPAN_M11,X0_M11,X2_M11,X1_M11
2023-09-21 21:00:00,SystemResetWarning,0827.8,5.00,000.00,027.6,026.2,000.0,036.0,029.3,21.2,0000.0,0009.03,0003.40,0002.61
2023-09-21 21:01:00,SystemResetWarning,0827.8,5.01,000.00,027.7,026.4,000.0,036.0,029.4,21.2,0000.0,0009.44,0003.39,0002.60
2023-09-21 21:02:00,SystemResetWarning,0827.8,4.99,000.00,027.7,026.6,000.0,036.0,029.5,20.9,0000.0,0009.41,0003.41,0002.60
2023-09-21 21:03:00,SystemResetWarning,0827.8,4.99,000.00,027.8,026.8,000.0,036.0,029.5,20.8,0000.0,0009.44,0003.39,0002.60
2023-09-21 21:04:00,SystemResetWarning,0827.8,5.01,000.00,027.8,026.9,000.0,036.1,029.6,20.6,0000.0,0009.94,0003.42,0002.62
2023-09-21 21:05:00,SystemResetWarning,0827.8,5.00,000.00,027.9,026.6,000.0,036.1,029.6,20.4,0000.0,0010.01,0003.43,0002.63
2023-09-21 21:06:00,SystemResetWarning,0827.8,4.98,000.00,027.8,025.0,000.0,036.0,029.1,20.6,0000.0,0009.99,0003.44,0002.62
2023-09-21 21:07:00,SystemResetWarning,0827.7,5.00,000.00,027.7,024.0,000.0,036.0,028.9,20.8,0000.0,0010.39,0003.45,0002.62
2023-09-21 21:08:00,SystemResetWarning,0827.7,5.01,000.00,027.6,024.1,000.0,035.9,028.9,20.8,0000.0,0010.55,0003.47,0002.62
2023-09-21 21:09:00,SystemResetWarning,0827.7,5.01,000.00,027.5,024.4,000.0,035.9,028.9,20.6,0000.0,0010.87,0003.47,0002.63
2023-09-21 21:10:00,SystemResetWarning,0827.7,5.00,000.00,027.5,024.8,000.0,036.0,029.0,20.9,0000.0,0010.60,0003.48,0002.64
2023-09-21 21:11:00,SystemResetWarning,0827.7,5.00,000.00,027.5,025.2,000.0,036.0,029.1,21.4,0000.0,0010.37,0003.44,0002.63
2023-09-21 21:12:00,SystemResetWarning,0827.7,5.00,000.00,027.6,025.6,000.0,036.0,029.2,21.3,0000.0,0009.75,0003.43,0002.61
2023-09-21 21:13:00,SystemResetWarning,0827.7,5.00,000.00,027.6,025.9,000.0,036.0,029.2,20.4,0000.0,0009.91,0003.41,0002.61
2023-09-21 21:14:00,SystemResetWarning,0827.7,5.00,000.00,027.7,026.2,000.0,036.0,029.3,20.8,0000.0,0010.30,0003.46,0002.63
2023-09-21 21:15:00,SystemResetWarning,0827.7,5.00,000.00,027.7,026.4,000.0,036.0,029.4,20.8,0000.0,0010.08,0003.46,0002.61
2023-09-21 21:16:00,SystemResetWarning,0827.7,5.00,000.00,027.7,026.6,000.0,036.0,029.5,20.6,0000.0,0010.03,0003.48,0002.61
2023-09-21 21:17:00,SystemResetWarning,0827.7,5.00,000.00,027.8,026.8,000.0,036.1,029.6,20.6,0000.0,0009.95,0003.48,0002.63
2023-09-21 21:18:00,SystemResetWarning,0827.7,5.00,000.00,027.9,026.9,000.0,036.1,029.6,20.6,0000.0,0009.48,0003.46,0002.65
2023-09-21 21:19:00,SystemResetWarning,0827.6,5.00,000.00,027.9,027.0,000.0,036.1,029.7,20.7,0000.0,0009.28,0003.47,0002.66
2023-09-21 21:20:00,SystemResetWarning,0827.7,4.98,000.00,027.9,025.7,000.0,036.1,029.3,20.5,0000.0,0008.95,0003.48,0002.66
2023-09-21 21:21:00,SystemResetWarning,0827.7,5.00,000.00,027.7,024.1,000.0,036.0,028.9,20.8,0000.0,0008.44,0003.47,0002.65
2023-09-21 21:22:00,SystemResetWarning,0827.7,5.00,000.00,027.7,024.0,000.0,036.0,028.9,21.1,0000.0,0008.46,0003.51,0002.67
2023-09-21 21:23:00,SystemResetWarning,0827.7,5.01,000.00,027.6,024.2,000.0,036.0,028.9,20.2,0000.0,0008.72,0003.54,0002.69
2023-09-21 21:24:00,SystemResetWarning,0827.7,5.00,000.00,027.5,024.6,000.0,036.0,029.0,20.3,0000.0,0008.46,0003.54,0002.70
2023-09-21 21:25:00,SystemResetWarning,0827.7,5.00,000.00,027.6,025.0,000.0,036.0,029.1,20.6,0000.0,0008.04,0003.51,0002.70
2023-09-21 21:26:00,SystemResetWarning,0827.7,5.01,000.00,027.6,025.4,000.0,036.0,029.2,20.7,0000.0,0008.01,0003.50,0002.70
2023-09-21 21:27:00,SystemResetWarning,0827.7,5.00,000.00,027.6,025.8,000.0,036.0,029.2,20.5,0000.0,0008.91,0003.54,0002.71
2023-09-21 21:28:00,SystemResetWarning,0827.7,5.00,000.00,027.7,026.1,000.0,036.0,029.3,20.5,0000.0,0009.05,0003.56,0002.69
2023-09-21 21:29:00,SystemResetWarning,0827.7,5.00,000.00,027.7,026.3,000.0,036.0,029.4,20.4,0000.0,0009.27,0003.59,0002.68
2023-09-21 21:30:00,SystemResetWarning,0827.7,5.00,000.00,027.8,026.6,000.0,036.0,029.5,20.3,0000.0,0009.55,0003.61,0002.67
2023-09-21 21:31:00,SystemResetWarning,0827.6,5.00,000.00,027.8,026.8,000.0,036.1,029.6,20.5,0000.0,0009.73,0003.61,0002.68
2023-09-21 21:32:00,SystemResetWarning,0827.7,4.99,000.00,027.9,026.9,000.0,036.1,029.6,20.2,0000.0,0010.31,0003.59,0002.68
2023-09-21 21:33:00,SystemResetWarning,0827.6,4.99,000.00,027.9,026.3,000.0,036.1,029.5,20.7,0000.0,0010.54,0003.59,0002.67
2023-09-21 21:34:00,SystemResetWarning,0827.5,5.00,000.00,027.8,024.6,000.0,036.0,029.1,20.5,0000.0,0010.63,0003.57,0002.67
2023-09-21 21:35:00,SystemResetWarning,0827.5,5.01,000.00,027.7,024.0,000.0,036.0,028.9,20.3,0000.0,0010.83,0003.57,0002.65
2023-09-21 21:36:00,SystemResetWarning,0827.5,5.01,000.00,027.6,024.2,000.0,036.0,029.0,20.0,0000.0,0010.90,0003.58,0002.66
2023-09-21 21:37:00,SystemResetWarning,0827.5,5.00,000.00,027.6,024.6,000.0,036.0,029.0,19.9,0000.0,0010.73,0003.59,0002.67
2023-09-21 21:38:00,SystemResetWarning,0827.5,5.00,000.00,027.6,025.0,000.0,036.0,029.1,20.0,0000.0,0009.96,0003.55,0002.68
2023-09-21 21:39:00,SystemResetWarning,0827.6,5.00,000.00,027.6,025.4,000.0,036.0,029.2,19.9,0000.0,0009.78,0003.54,0002.69
2023-09-21 21:40:00,SystemResetWarning,0827.8,5.00,000.00,027.6,025.7,000.0,036.0,029.2,19.8,0000.0,0009.73,0003.53,0002.70
2023-09-21 21:41:00,SystemResetWarning,0827.9,5.00,000.00,027.7,026.1,000.0,036.0,029.3,20.3,0000.0,0009.65,0003.55,0002.69
2023-09-21 21:42:00,SystemResetWarning,0827.9,5.00,000.00,027.7,026.3,000.0,036.0,029.4,20.5,0000.0,0009.21,0003.49,0002.68
2023-09-21 21:43:00,SystemResetWarning,0827.5,5.01,000.00,027.8,026.6,000.0,036.0,029.5,20.6,0000.0,0008.64,0003.51,0002.67
2023-09-21 21:44:00,SystemResetWarning,0827.8,4.99,000.00,027.8,026.8,000.0,036.1,029.6,20.6,0000.0,0008.60,0003.48,0002.67
2023-09-21 21:45:00,SystemResetWarning,0827.9,4.99,000.00,027.9,027.0,000.0,036.1,029.6,19.7,0000.0,0008.89,0003.53,0002.67
2023-09-21 21:46:00,SystemResetWarning,0827.6,4.99,000.00,027.9,026.7,000.0,036.1,029.6,19.2,0000.0,0008.69,0003.53,0002.67
2023-09-21 21:47:00,SystemResetWarning,0827.4,5.01,000.00,027.8,025.2,000.0,036.1,029.2,19.4,0000.0,0008.82,0003.55,0002.68
2023-09-21 21:48:00,SystemResetWarning,0827.4,5.00,000.00,027.7,024.1,000.0,036.0,028.9,19.9,0000.0,0009.00,0003.57,0002.68
2023-09-21 21:49:00,SystemResetWarning,0827.4,5.01,000.00,027.6,024.2,000.0,036.0,029.0,20.2,0000.0,0009.28,0003.59,0002.69
2023-09-21 21:50:00,SystemResetWarning,0827.4,5.01,000.00,027.6,024.5,000.0,036.0,029.0,19.5,0000.0,0009.33,0003.59,0002.69
2023-09-21 21:51:00,SystemResetWarning,0827.4,5.00,000.00,027.6,024.9,000.0,036.0,029.1,19.3,0000.0,0009.50,0003.59,0002.68
2023-09-21 21:52:00,SystemResetWarning,0827.4,5.00,000.00,027.6,025.3,000.0,036.0,029.2,19.1,0000.0,0009.43,0003.54,0002.68
2023-09-21 21:53:00,SystemResetWarning,0827.4,4.99,000.00,027.6,025.7,000.0,036.0,029.2,19.1,0000.0,0009.58,0003.60,0002.69
2023-09-21 21:54:00,SystemResetWarning,0827.4,5.00,000.00,027.7,026.0,000.0,036.0,029.3,18.2,0000.0,0009.75,0003.62,0002.69
2023-09-21 21:55:00,SystemResetWarning,0827.4,5.00,000.00,027.7,026.3,000.0,036.0,029.4,18.0,0000.0,0009.57,0003.67,0002.70
2023-09-21 21:56:00,SystemResetWarning,0827.4,5.01,000.00,027.8,026.5,000.0,036.0,029.5,18.2,0000.0,0008.93,0003.63,0002.72
2023-09-21 21:57:00,SystemResetWarning,0827.4,5.00,000.00,027.8,026.7,000.0,036.1,029.6,18.3,0000.0,0009.37,0003.65,0002.73
2023-09-21 21:58:00,SystemResetWarning,0827.4,5.01,000.00,027.9,026.9,000.0,036.1,029.6,18.5,0000.0,0010.18,0003.67,0002.73
2023-09-21 21:59:00,SystemResetWarning,0827.4,5.00,000.00,027.9,027.0,000.0,036.1,029.7,18.3,0000.0,0011.05,0003.69,0002.72
